Regional Weather Roundup
Issued by NWS Sterling, VA

Home | Current Version | Previous Version | Text Only | Print | Product List | Glossary Off
Versions: 1 2 3 4 5 6 7 8 9 10 11 12 13 14 15 16 17 18 19 20 21 22 23 24 25 26 27 28

000
ASUS41 KLWX 241710
RWRLWX

REGIONAL WEATHER ROUNDUP
NATIONAL WEATHER SERVICE BALTIMORE MD/WASHINGTON DC
100 PM EDT FRI OCT 24 2014

Note: "FAIR" indicates few or no clouds below 12,000 feet
with no significant weather and/or obstructions to visibility.
 TC=TEMPERATURE CELSIUS

 * =Non NWS site. Station does not report precipitation (e.g. rain,
    snow, etc.), thunder, or fog.

DCZ001-MDZ009-015-VAZ040>042-051-053>054-241800-
WASHINGTON METRO

CITY           SKY/WX    TMP DP  RH WIND       PRES   REMARKS
WASHINGTON NAT CLOUDY    65  41  41 NW16G26   29.95F
DULLES         PTSUNNY   62  40  44 NW21      29.96F
ANDREWS AFB    MOSUNNY   64  42  44 NW15G23   29.93F
FT BELVOIR     MOSUNNY   64  42  43 W16G22    29.95F
QUANTICO       PTSUNNY   66  39  37 NW13      29.96F
COLLEGE PARK*  MOSUNNY   63  41  45 NW10G20   29.93F
LEESBURG*      MOSUNNY   63  45  51 NW18      29.97F
MANASSAS*      MOSUNNY   64  43  45 NW10      29.97F
GAITHERSBURG*  MOSUNNY   61  43  51 NW13G22   29.98F

$$

MDZ006>007-011-014-241800-
BALTIMORE METRO

CITY           SKY/WX    TMP DP  RH WIND       PRES   REMARKS
BWI AIRPORT    NOT AVBL
MD SCIENCE CTR   N/A     65  40  39 MISG      29.93F
MARTIN STATE   MOSUNNY   63  46  55 W16G24    29.91F
ANNAPOLIS      MOSUNNY   64  44  48 NW13      29.90F
FORT MEADE*    PTSUNNY   63  43  48 W12G18    29.95F

$$

MDZ012-015-019>023-241800-
MARYLAND EASTERN SHORE

CITY           SKY/WX    TMP DP  RH WIND       PRES   REMARKS
OCEAN CITY     MOSUNNY   65  46  50 N15G22    29.87F
SALISBURY      MOSUNNY   67  46  47 NW15      29.88F
BAY BRIDGE AP*   N/A     63  43  48 NW14      29.90F
CAMBRIDGE*     MOSUNNY   64  45  48 NW13G20   29.90F
EASTON*        MOSUNNY   66  46  48 N12G25    29.94F

$$

MDZ017>025-241800-
SOUTHERN MARYLAND

CITY           SKY/WX    TMP DP  RH WIND       PRES   REMARKS
PATUXENT RIVER MOSUNNY   66  44  45 NW17      29.92F
ST INIGOES     MOSUNNY   67  43  41 W10       29.92F
LEONARDTOWN*   MOSUNNY   64  43  45 NW6       29.94F

$$

MDZ003>005-241800-
NORTH CENTRAL MARYLAND

CITY           SKY/WX    TMP DP  RH WIND       PRES   REMARKS
FREDERICK*     SUNNY     66  39  37 NW8       29.99F
HAGERSTOWN APT MOSUNNY   60  39  45 NW13      29.97F
WESTMINSTER*   MOSUNNY   61  41  48 W9        29.93F

$$

MDZ501>502-241800-
WESTERN MARYLAND

CITY           SKY/WX    TMP DP  RH WIND       PRES   REMARKS
OAKLAND*       PTSUNNY   46  37  71 W8        30.05F
CUMBERLAND*    PTSUNNY   63  36  36 N12       30.05F

$$

VAZ025>031-241800-
SHENANDOAH VALLEY

CITY           SKY/WX    TMP DP  RH WIND       PRES   REMARKS
WINCHESTER*    MOSUNNY   63  34  34 W12G18    29.99F
FRONT ROYAL*   FAIR      63  41  45 W5        29.98F
LURAY*         FAIR      63  45  51 SW6       30.00F
NEW MARKET*    FAIR      61  41  48 SW5       30.00F
STAUNTON*      PTSUNNY   60  40  48 CALM      30.03F
WAYNESBORO*    FAIR      60  40  48 NW5       30.01F

$$

WVZ021-048>050-054>055-241800-
EASTERN WEST VIRGINIA PANHANDLE

CITY           SKY/WX    TMP DP  RH WIND       PRES   REMARKS
MARTINSBURG    MOSUNNY   64  34  32 NW14      29.98F
PETERSBURG*    CLOUDY    58  38  45 CALM      30.03F

$$

VAZ036>039-050-241800-
CENTRAL FOOTHILLS

CITY           SKY/WX    TMP DP  RH WIND       PRES   REMARKS
CHARLOTTESVILL PTSUNNY   65  39  38 NW6       29.98F
CULPEPER*      PTSUNNY   64  45  48 CALM      29.98F
ORANGE*        CLOUDY    61  45  55 CALM      29.99F
GORDONSVILLE*  FAIR      64  44  49 CALM      29.97F
WARRENTON*     FAIR      66  48  51 NW7       29.96F

$$

VAZ055>057-241800-
NORTH AND CENTRAL PIEDMONT

CITY           SKY/WX    TMP DP  RH WIND       PRES   REMARKS
FREDERICKSBRG* PTSUNNY   65  42  43 W6        29.96F
STAFFORD*      PTSUNNY   63  38  39 NW12      30.00F

$$

NCZ024-NYZ072-PAZ021-071-VAZ022-071-241800-
OTHER REGIONAL OBSERVATIONS

CITY           SKY/WX    TMP DP  RH WIND       PRES   REMARKS
NEW YORK CITY  CLOUDY    58  42  55 NW7       29.81F
PHILADELPHIA   MOSUNNY   66  43  43 NW20      29.84F
PITTSBURGH     PTSUNNY   55  41  59 NW3       30.06F
ROANOKE        PTSUNNY   62  43  49 W12       30.06F
RICHMOND       PTSUNNY   67  42  40 NW10      29.98F
RALEIGH        MOSUNNY   67  43  41 CALM      30.03F

$$

ANZ530>537-241800-
MARINE OBSERVATIONS

STATION/POSITION TIME  TEMP    WIND        PRES
                       AIR SEA DIR/SP/G
                 (UTC) (F)     (DEG/KT/KT) (MB)
THOMAS PT LIGHT  1700   63 62  340/ 15/ 17 1013.4F
BALT KEY BRIDGE  1700   62     290/ 15/ 18 1012.5F
COVE POINT       1700   61     350/ 16/ 18 1013.0F
LEWISETTA        1700   60 59  310/ 12/ 15 1013.3F
SOLOMONS ISLAND  1700      64                N/A
PINEY POINT      1700          300/ 17/ 18   N/A

$$




USA.gov is the U.S. government's official web portal to all federal, state and local government web resources and services.